Weather History for KICT - January, 2012

Change the Weather History Date:

Friday, January 6, 2012

  Actual Average Record
Temperature  
Mean Temperature 43 °F 32 °F  
Max Temperature 57 °F 42 °F 63 °F (1903)
Min Temperature 29 °F 22 °F -10 °F (1912)
Degree Days  
Heating Degree Days 22 33  
Month to date heating degree days 146 198  
Since 1 July heating degree days 1830 2041  
Cooling Degree Days 0 0  
Month to date cooling degree days 0 0  
Year to date cooling degree days 0 0  
Moisture  
Dew Point 29 °F    
Average Humidity 62    
Maximum Humidity 92    
Minimum Humidity 32    
Precipitation  
Precipitation 0.00 in 0.03 in 0.88 in (1940)
Month to date precipitation 0.00 0.15  
Year to date precipitation 0.00 0.15  
Snow  
Snow 0.00 in 0.10 in 6.30 in (1988)
Month to date snowfall 0.0 0.7  
Since 1 July snowfall 0.4 6.3  
Snow Depth 0.00 in    
Sea Level Pressure  
Sea Level Pressure 29.90 in    
Wind  
Wind Speed 10 mph (NW)    
Max Wind Speed 21 mph    
Max Gust Speed 31 mph    
Visibility 10 miles    
Events      
T = Trace of Precipitation, MM = Missing Value Source: NWS Daily Summary

Daily Weather History Graph

Daily Weather History Graph

Search for Another Location

Airport or City:

Trip Planner

Search our weather history database for the weather conditions in past years. The results will help you decide how hot, cold, wet, or windy it might be!

Date:

Astronomy

Jan. 06, 2012 Rise Set
Actual Time 7:45 AM CST 5:25 PM CST
Civil Twilight 7:16 AM CST 5:54 PM CST
Nautical Twilight 6:43 AM CST 6:27 PM CST
Astronomical Twilight 6:11 AM CST 6:59 PM CST
Moon 3:18 PM CST (1/6) 5:25 AM CST (1/6)
Length of Visible Light 10h 38m
Length of Day
9h 40m
Waxing Gibbous, 93% of the Moon is Illuminated
Jan 6
Waxing Gibbous
Jan 9
Full
Jan 16
Last Quarter
Jan 23
New
Jan 30
First Quarter

Hourly Weather History & Observations

Time (CST) Temp. Windchill Dew Point Humidity Pressure Visibility Wind Dir Wind Speed Gust Speed Precip Events Conditions
12:53 AM 39.0 °F 31.8 °F 33.1 °F 79% 29.86 in 10.0 mi South 11.5 mph - N/A   Clear
1:53 AM 37.4 °F 31.4 °F 32.0 °F 81% 29.84 in 10.0 mi South 8.1 mph - N/A   Clear
2:53 AM 33.1 °F 26.1 °F 30.0 °F 89% 29.84 in 10.0 mi South 8.1 mph - N/A   Clear
3:53 AM 33.1 °F 25.5 °F 30.0 °F 89% 29.83 in 10.0 mi South 9.2 mph - N/A   Clear
4:53 AM 34.0 °F 26.6 °F 30.0 °F 85% 29.82 in 10.0 mi South 9.2 mph - N/A   Clear
5:53 AM 30.9 °F 23.5 °F 28.0 °F 89% 29.83 in 10.0 mi South 8.1 mph - N/A   Clear
6:53 AM 32.0 °F 24.8 °F 28.9 °F 88% 29.82 in 10.0 mi South 8.1 mph - N/A   Clear
7:53 AM 28.9 °F - 26.1 °F 89% 29.82 in 10.0 mi Calm Calm - N/A   Clear
8:53 AM 37.0 °F - 30.9 °F 79% 29.83 in 10.0 mi Calm Calm - N/A   Clear
9:53 AM 44.1 °F 39.0 °F 32.0 °F 63% 29.83 in 10.0 mi SSW 9.2 mph - N/A   Scattered Clouds
10:53 AM 50.0 °F - 30.9 °F 48% 29.84 in 10.0 mi SW 10.4 mph - N/A   Partly Cloudy
11:53 AM 51.1 °F - 32.0 °F 48% 29.83 in 10.0 mi WSW 3.5 mph - N/A   Partly Cloudy
12:53 PM 53.6 °F - 33.8 °F 47% 29.81 in 10.0 mi NW 9.2 mph - N/A   Partly Cloudy
1:53 PM 55.0 °F - 34.0 °F 45% 29.83 in 10.0 mi North 15.0 mph - N/A   Scattered Clouds
2:53 PM 55.9 °F - 35.1 °F 45% 29.84 in 10.0 mi North 12.7 mph 24.2 mph N/A   Scattered Clouds
3:53 PM 57.0 °F - 33.1 °F 40% 29.88 in 10.0 mi North 20.7 mph 28.8 mph N/A   Scattered Clouds
4:53 PM 55.9 °F - 28.0 °F 34% 29.91 in 10.0 mi North 18.4 mph - N/A   Scattered Clouds
5:53 PM 53.1 °F - 28.9 °F 40% 29.95 in 10.0 mi North 10.4 mph - N/A   Scattered Clouds
6:53 PM 50.0 °F - 21.9 °F 33% 30.00 in 10.0 mi North 16.1 mph 25.3 mph N/A   Mostly Cloudy
7:53 PM 48.9 °F - 23.0 °F 36% 30.04 in 10.0 mi North 15.0 mph - N/A   Mostly Cloudy
8:53 PM 46.9 °F - 25.0 °F 42% 30.06 in 10.0 mi North 11.5 mph - N/A   Overcast
9:53 PM 46.9 °F - 26.1 °F 44% 30.06 in 10.0 mi North 12.7 mph - N/A   Mostly Cloudy
10:53 PM 45.0 °F 40.6 °F 27.0 °F 49% 30.08 in 10.0 mi North 8.1 mph - N/A   Mostly Cloudy
11:53 PM 43.0 °F 37.2 °F 28.0 °F 56% 30.09 in 10.0 mi North 10.4 mph - N/A   Scattered Clouds